Wind_Speed
13 14 14 14 11 11 14 15 13 11 13 20 28 28 32 35 33 31 21 24 13 5 6 14 17 12 16 14 4 11 6 8 5 5 4 7 6 6 7 14 14 13 6 5 4 7 13 13 8 8 6 6 8 5
17 17 17 18 17 15 14 11 11 14 19 20 25 36 37 42 32 31 22 21 18 9 5 13 19 19 17 7 9 7 5 11 7 4 4 4 9 10 15 15 1 3 6 7 5 5 7 16 14 14 7 7 6 4
20 20 19 18 15 14 14 11 10 12 15 16 13 23 21 37 36 36 29 21 20 17 11 12 17 21 20 20 14 10 10 10 7 8 4 4 7 5 8 10 13 11 16 10 13 12 14 14 21 20 10 8 6 3
15 16 17 16 13 13 12 12 12 12 12 13 14 12 22 26 41 40 39 30 29 11 5 8 13 23 22 21 22 23 18 9 10 7 5 4 5 6 8 12 12 13 15 14 16 18 21 17 16 20 13 14 16 13
13 13 13 14 14 13 11 12 12 13 14 14 13 16 14 14 21 34 43 40 40 28 6 9 8 12 16 20 23 23 25 21 13 7 5 7 14 11 14 13 13 17 13 11 11 17 12 16 10 13 11 12 13 15
12 12 13 14 14 15 15 15 16 17 18 17 17 17 16 14 17 16 10 34 42 37 9 3 2 9 17 15 18 22 24 22 18 9 10 14 25 10 5 9 19 21 17 16 20 24 24 22 21 18 14 13 14 14
14 15 16 17 18 19 20 21 20 22 22 22 22 21 18 17 22 22 7 5 38 37 8 3 4 8 15 13 16 19 17 15 13 8 13 20 14 9 6 14 29 22 20 21 22 23 22 20 18 17 15 15 14 16
17 18 19 20 21 21 23 22 27 25 22 23 23 21 19 18 20 21 18 10 20 24 8 4 3 7 17 12 9 11 10 16 12 11 10 14 10 8 6 18 19 19 16 17 17 18 22 24 24 23 20 20 22 22
19 20 19 19 20 23 24 26 24 27 29 28 28 21 18 17 10 9 23 19 22 9 8 4 7 5 12 11 6 10 9 6 8 5 7 7 5 8 13 16 17 20 19 19 17 20 21 24 25 23 22 23 25 26
16 16 18 19 23 25 26 26 28 34 26 16 17 12 9 9 17 30 18 10 6 4 5 4 7 4 12 13 9 8 9 5 4 8 10 5 11 33 30 28 27 25 20 15 14 18 22 21 21 20 22 22 24 26
17 18 18 22 27 29 29 30 35 23 17 22 9 6 15 36 14 4 3 2 4 3 6 7 15 8 11 9 6 9 3 3 4 5 6 6 8 13 20 20 16 14 14 15 15 17 16 20 21 20 21 22 24 25
20 20 21 24 31 36 42 42 19 21 17 19 21 30 17 7 4 4 4 4 4 5 9 8 10 19 11 8 6 4 3 3 5 7 3 4 10 13 11 12 11 12 11 12 16 22 24 24 21 21 23 23 24 25
20 19 21 26 34 43 26 16 28 31 36 31 17 5 3 2 4 7 7 4 5 7 10 12 7 10 4 7 5 5 5 5 6 3 4 6 11 8 11 9 11 10 12 14 18 21 23 24 23 21 25 27 27 27
19 17 17 25 29 14 24 30 35 35 30 8 5 5 5 5 6 4 7 5 7 10 19 18 11 6 6 6 3 4 4 2 4 5 13 3 3 6 7 9 11 12 12 15 18 19 18 18 20 21 24 24 24 27
17 14 14 19 16 6 18 27 29 28 8 4 6 5 4 5 6 8 9 11 10 16 19 10 5 5 3 4 3 3 4 6 6 8 6 4 0 3 6 8 10 13 16 17 17 17 17 18 19 23 29 23 21 25
13 12 9 12 8 13 14 10 9 7 4 3 2 4 8 9 7 10 11 13 12 15 13 6 3 4 3 3 5 7 4 6 4 5 8 3 5 7 8 10 14 17 18 18 17 18 19 19 20 28 29 17 19 18
10 8 4 8 7 11 18 11 5 5 4 3 2 5 3 8 12 10 12 13 15 13 3 2 5 4 3 3 4 4 12 11 13 13 7 6 8 11 14 15 16 16 17 17 17 19 18 17 20 25 21 17 15 13
11 7 7 4 6 15 14 5 2 2 3 3 1 6 4 6 11 9 9 13 11 8 5 3 3 4 4 4 8 6 9 12 14 13 12 10 12 15 16 16 15 17 17 17 17 17 15 14 17 20 18 16 11 8
13 10 6 2 2 6 4 2 2 2 3 3 3 3 3 5 5 8 9 14 5 8 4 4 3 4 6 7 9 9 8 8 9 10 12 14 15 16 14 13 15 16 15 14 14 14 13 11 12 14 16 17 13 7
14 11 8 8 6 3 3 2 3 2 2 3 3 4 3 4 6 8 8 11 9 4 4 4 5 9 12 10 7 8 9 10 11 13 14 12 10 11 13 13 15 16 15 12 11 12 10 12 13 12 12 12 12 11
18 16 12 12 6 2 2 3 2 2 2 2 2 3 2 4 5 7 8 11 7 5 5 16 16 15 15 16 16 17 19 15 15 15 17 16 13 13 15 13 12 13 12 10 9 9 9 12 16 17 16 14 13 12
21 24 19 12 3 3 2 2 2 4 3 2 2 2 3 4 6 8 9 9 7 14 12 14 17 17 16 17 16 15 15 15 16 17 18 17 15 13 13 12 11 11 10 10 10 10 12 13 15 20 18 15 14 14
29 21 11 4 3 2 2 4 1 2 2 2 2 2 3 3 4 8 5 9 10 15 17 18 19 17 18 17 17 17 17 17 16 15 15 14 13 12 13 12 9 9 9 10 11 12 14 19 18 22 19 16 14 16
24 6 5 4 2 3 4 3 3 3 3 2 2 3 3 4 6 4 4 5 12 11 12 14 13 13 13 14 15 15 13 11 12 12 10 10 10 9 8 9 10 9 10 10 10 14 17 20 20 19 15 15 15 14
5 2 5 3 3 4 4 5 4 4 3 5 4 3 3 6 4 4 3 5 11 12 11 10 11 12 14 15 13 11 10 10 8 8 6 7 7 7 7 7 8 9 10 10 12 14 16 19 19 15 12 12 14 14
3 2 3 5 5 5 5 5 6 6 4 4 5 2 5 3 3 5 3 4 6 6 7 7 7 7 7 8 9 8 5 7 8 9 6 5 7 8 9 8 8 9 13 18 18 16 17 19 20 15 13 13 13 14
3 3 4 4 4 4 3 3 5 3 4 5 3 5 4 3 5 3 3 3 3 3 6 7 8 7 7 6 6 6 7 9 8 7 6 10 13 12 12 11 11 14 18 19 17 16 19 20 22 17 12 14 15 16
2 6 5 10 5 6 3 3 4 5 4 4 4 6 4 5 2 0 1 5 4 3 4 5 4 5 6 7 8 8 7 7 9 9 10 12 11 10 11 13 14 17 18 16 16 16 17 18 22 19 15 16 16 16
3 5 7 3 4 4 6 5 4 6 6 9 3 4 3 4 2 3 6 5 4 7 6 5 6 6 7 8 8 8 8 10 9 8 8 7 5 8 11 13 15 15 14 15 12 12 13 18 22 17 16 14 12 10
4 9 5 5 4 6 6 11 6 8 8 10 12 6 4 7 9 10 9 9 9 8 8 6 5 4 5 5 6 6 7 7 6 7 7 7 10 13 14 13 13 13 13 14 15 15 13 20 17 10 9 8 7 7
6 9 3 6 4 5 8 7 10 10 9 6 10 12 13 5 6 8 8 7 5 3 2 1 2 2 3 4 5 5 5 6 6 7 9 11 12 11 12 13 14 14 14 14 14 14 14 18 13 7 7 5 5 6
7 8 4 3 2 3 3 3 3 3 4 5 4 5 4 4 3 2 2 2 2 2 1 1 3 5 6 5 4 4 5 6 8 10 11 11 10 11 12 14 16 16 13 12 12 11 11 13 11 6 6 7 2 3
2 3 3 2 2 3 1 1 1 1 1 2 2 2 2 1 1 2 1 1 2 2 2 3 5 5 4 4 5 5 6 9 10 10 10 10 9 10 12 14 15 13 11 11 11 10 10 12 12 9 7 8 5 3
Wind_Direction
267 280 285 292 297 303 302 281 256 199 189 243 242 223 206 205 211 208 206 206 203 182 206 195 200 207 195 197 182 128 165 198 186 225 253 269 282 300 283 274 288 286 274 252 251 242 252 302 170 232 61 123 149 163
275 277 282 287 290 288 285 286 281 275 279 272 271 229 216 208 208 207 210 219 199 213 231 214 211 209 210 219 210 194 246 161 193 234 248 288 293 291 278 282 289 263 251 280 239 274 278 327 331 329 320 234 187 187
277 279 275 276 275 271 272 266 264 273 272 279 221 189 225 210 213 211 202 206 191 219 245 232 216 221 220 220 216 207 224 229 217 228 268 258 260 287 273 289 300 292 340 296 274 272 258 274 255 278 279 268 191 213
266 264 269 272 274 276 274 273 267 270 277 286 282 266 215 207 215 217 214 203 197 184 228 252 212 223 224 223 227 225 226 223 222 205 228 260 257 242 280 297 291 290 286 275 283 271 271 265 258 276 252 245 245 259
272 269 267 266 269 272 270 275 274 271 276 275 271 274 278 268 251 223 215 215 214 189 206 222 199 208 204 211 218 226 224 226 211 215 222 248 263 275 268 268 268 265 266 262 270 295 291 284 263 245 226 246 245 256
276 277 277 276 277 278 279 284 277 275 276 279 272 264 254 265 266 240 233 199 199 203 205 202 203 173 195 200 210 220 224 227 229 225 242 255 248 278 274 274 282 290 287 285 283 289 289 286 281 274 278 276 272 269
280 280 282 284 283 281 280 280 278 274 272 266 262 266 260 243 252 219 198 190 196 201 169 163 184 188 184 198 215 222 223 221 215 220 238 249 247 215 263 266 273 286 289 285 280 284 283 276 279 268 263 265 270 274
289 284 282 283 282 281 282 280 276 278 272 265 258 265 256 251 246 217 209 166 183 176 163 153 181 165 169 171 174 196 201 201 213 228 233 225 243 232 257 256 271 278 284 283 289 286 279 280 277 274 276 277 275 271
285 285 282 285 287 287 280 282 277 279 277 269 258 244 224 227 222 195 201 189 180 163 154 187 166 172 174 181 141 176 194 196 217 221 226 195 212 227 242 258 268 282 288 288 298 305 300 277 275 273 268 267 266 266
289 291 293 297 296 294 287 281 288 287 274 253 199 166 190 191 150 127 141 163 141 142 149 192 200 153 168 175 189 191 189 227 207 219 202 225 244 248 257 260 269 276 270 272 288 310 312 302 289 279 269 266 264 266
292 293 298 302 303 300 292 288 295 280 211 176 140 120 162 151 140 76 112 149 113 160 191 200 195 173 205 187 190 209 212 222 226 183 198 214 252 243 246 249 255 245 249 255 270 281 309 298 295 288 280 273 269 266
290 296 303 304 302 303 303 293 251 210 167 158 146 137 128 112 140 176 142 131 190 199 171 178 189 208 182 199 215 181 218 226 246 149 220 246 258 270 260 257 232 245 254 270 273 274 277 279 284 286 286 282 274 270
289 300 306 307 309 312 297 199 186 161 134 121 119 101 153 124 153 178 171 179 192 179 159 157 155 165 146 205 199 182 212 220 145 196 235 251 268 274 271 247 234 253 276 280 282 281 277 276 274 280 288 279 275 271
285 297 309 308 327 28 135 157 136 139 131 115 121 137 211 187 203 182 173 162 175 164 154 171 153 164 165 177 197 205 195 243 225 234 233 266 244 267 255 242 259 277 285 290 293 292 286 277 277 278 299 284 274 269
276 284 298 306 330 42 94 117 126 137 114 116 169 193 189 125 121 134 117 128 142 151 157 141 146 165 165 164 196 234 186 227 224 239 268 339 62 241 251 269 286 294 295 293 298 299 291 287 286 291 299 294 276 274
268 276 284 302 312 163 122 99 116 126 85 83 115 160 149 132 132 152 139 126 144 151 158 171 149 163 167 183 198 208 223 225 244 251 275 294 265 269 277 287 291 292 293 292 295 295 290 290 289 300 305 296 289 271
241 243 253 275 268 168 172 160 58 31 96 146 108 121 124 128 138 139 160 157 160 161 166 158 174 174 108 201 219 237 235 253 277 290 283 260 262 277 289 294 293 293 293 293 294 293 293 293 309 311 309 303 303 280
220 220 232 283 299 149 123 137 138 97 88 67 93 142 105 105 127 136 154 160 164 189 173 185 132 197 215 232 241 264 290 299 281 272 267 264 278 287 290 290 293 296 294 294 293 292 296 296 298 311 314 326 322 306
206 194 196 214 80 96 106 216 23 78 83 110 105 108 125 141 131 132 147 170 172 183 179 186 219 223 236 255 265 261 266 282 290 283 281 283 284 282 281 290 298 298 297 296 292 290 294 299 309 318 322 317 316 318
193 190 183 161 111 65 91 89 125 100 126 123 133 165 165 139 148 173 161 171 171 182 204 225 219 243 233 240 249 263 286 290 288 288 289 287 283 278 283 294 294 298 302 301 298 297 290 296 311 305 305 306 307 304
192 186 174 170 169 121 103 131 97 93 94 109 132 181 166 163 174 174 174 173 183 218 235 235 244 248 245 258 270 271 278 277 271 270 276 281 284 283 287 296 297 300 299 304 302 304 311 311 311 309 311 307 303 297
175 172 155 153 136 144 89 125 93 141 138 105 162 223 208 197 197 202 175 193 227 229 229 243 252 262 270 269 270 270 270 269 270 270 274 280 283 285 287 297 297 299 298 306 307 307 311 317 319 314 300 297 296 297
153 158 137 130 120 111 101 150 176 166 144 183 198 217 222 204 188 159 219 224 242 245 242 249 260 265 267 272 273 272 270 271 270 271 274 271 271 274 284 290 291 295 299 304 306 305 305 323 316 318 309 297 287 294
140 119 129 136 120 125 139 157 179 182 171 192 193 230 215 197 167 219 246 235 241 251 246 252 257 261 270 270 273 280 281 269 268 276 268 261 272 285 280 280 284 298 303 307 309 318 327 338 330 325 313 300 298 295
120 136 138 120 139 135 164 171 188 194 225 202 204 229 195 179 200 222 236 250 247 247 251 252 252 254 263 272 277 282 287 270 259 267 274 262 277 289 299 288 282 291 308 310 311 313 314 337 334 324 314 302 301 294
99 160 167 156 159 179 181 173 197 205 179 204 220 203 179 203 228 241 223 251 251 260 253 250 251 256 263 275 285 285 268 270 278 266 265 277 295 300 303 294 287 297 298 322 319 312 315 332 332 319 304 296 291 290
133 164 179 182 171 168 185 187 178 180 193 202 197 174 179 222 235 242 258 277 277 288 264 259 265 267 274 283 291 296 282 282 265 257 267 298 306 307 310 302 289 293 311 321 321 313 313 326 328 315 299 284 278 275
118 165 170 176 183 187 168 193 198 205 201 191 179 192 202 216 254 10 272 280 241 266 300 298 294 269 265 271 279 290 297 298 286 284 291 291 291 291 287 285 290 299 306 310 312 309 314 326 322 311 300 287 279 268
189 172 147 164 171 191 217 209 220 212 200 189 202 212 227 220 238 288 285 273 290 316 310 301 289 288 288 284 284 287 293 287 295 294 292 287 289 281 295 300 303 309 312 314 316 314 322 333 320 307 302 289 273 264
195 175 185 175 181 214 226 202 224 202 207 273 261 247 260 282 282 266 269 278 293 293 294 293 288 283 278 284 287 291 287 289 304 311 318 311 309 314 317 320 323 324 324 327 331 334 343 331 326 323 321 304 279 257
161 182 210 203 230 232 229 223 240 244 263 250 239 248 259 252 274 264 265 278 282 282 268 280 289 293 305 306 302 296 296 304 316 324 323 319 320 325 333 334 332 328 327 330 334 338 343 328 339 350 336 305 260 233
190 197 211 235 215 222 232 215 203 215 199 212 222 214 205 207 227 249 291 235 201 219 230 273 294 304 313 314 313 320 322 328 332 330 327 330 338 339 334 331 327 330 331 334 339 343 340 336 352 9 355 345 258 233
212 214 214 248 225 174 111 215 154 155 201 178 166 188 203 230 219 230 279 313 217 233 283 304 308 315 325 329 316 317 332 335 336 335 330 332 329 330 325 323 331 340 342 348 351 349 351 353 7 23 22 18 15 195
Height
1437 1437 1437 1437 1435 1434 1432 1434 1434 1433 1436 1435 1433 1436 1438 1445 1449 1453 1456 1459 1466 1465 1466 1467 1470 1475 1481 1479 1478 1480 1488 1490 1493 1493 1484 1473 1467 1460 1458 1452 1449 1451 1455 1450 1450 1452 1445 1427 1425 1425 1422 1419 1421 1423
1434 1433 1432 1432 1431 1430 1431 1431 1430 1429 1431 1430 1427 1429 1432 1436 1444 1450 1456 1455 1461 1467 1468 1466 1467 1474 1476 1476 1479 1483 1482 1479 1480 1482 1477 1473 1469 1463 1459 1451 1452 1456 1444 1444 1446 1433 1430 1433 1436 1426 1423 1422 1423 1424
1428 1428 1428 1428 1428 1428 1427 1427 1427 1426 1426 1426 1424 1423 1423 1428 1436 1442 1448 1451 1458 1464 1463 1461 1463 1466 1469 1472 1475 1479 1481 1481 1481 1481 1481 1479 1474 1466 1459 1448 1446 1439 1441 1439 1437 1429 1426 1427 1429 1429 1428 1425 1426 1426
1423 1422 1423 1423 1423 1424 1423 1422 1423 1423 1423 1422 1421 1421 1422 1424 1429 1433 1438 1443 1451 1458 1460 1451 1453 1458 1461 1466 1470 1473 1475 1477 1479 1479 1481 1476 1470 1465 1456 1451 1448 1446 1443 1437 1432 1426 1424 1423 1426 1424 1424 1425 1426 1426
1418 1418 1418 1418 1418 1418 1418 1418 1418 1419 1419 1420 1420 1420 1421 1422 1422 1426 1429 1431 1440 1446 1447 1447 1448 1450 1453 1459 1463 1469 1472 1473 1473 1476 1475 1471 1466 1463 1452 1447 1441 1438 1435 1433 1429 1424 1431 1420 1420 1419 1419 1421 1423 1423
1415 1414 1414 1414 1414 1414 1413 1413 1413 1414 1415 1415 1416 1418 1419 1420 1420 1419 1419 1420 1430 1437 1444 1445 1443 1444 1449 1454 1458 1463 1466 1468 1468 1469 1467 1463 1461 1462 1452 1437 1432 1431 1430 1430 1426 1423 1421 1419 1418 1418 1417 1418 1419 1420
1410 1410 1410 1409 1409 1408 1407 1407 1408 1408 1409 1410 1411 1411 1413 1416 1412 1415 1416 1415 1422 1428 1435 1440 1440 1442 1445 1452 1456 1459 1461 1462 1464 1464 1460 1457 1455 1456 1446 1436 1424 1426 1425 1423 1422 1421 1417 1415 1414 1415 1415 1415 1415 1415
1406 1405 1404 1403 1402 1401 1401 1400 1399 1399 1400 1402 1404 1406 1409 1411 1411 1407 1411 1413 1417 1426 1432 1434 1437 1440 1441 1445 1451 1454 1455 1458 1458 1456 1450 1448 1448 1447 1437 1422 1422 1420 1419 1418 1417 1416 1413 1411 1410 1411 1411 1411 1410 1410
1400 1399 1397 1396 1395 1394 1392 1391 1391 1391 1391 1392 1395 1400 1402 1404 1405 1404 1408 1412 1415 1425 1426 1429 1428 1431 1437 1438 1442 1450 1451 1450 1449 1445 1441 1442 1437 1432 1414 1418 1416 1415 1414 1413 1412 1410 1407 1404 1403 1404 1405 1405 1404 1403
1394 1393 1391 1390 1388 1385 1383 1382 1381 1379 1380 1382 1388 1390 1396 1399 1404 1407 1409 1412 1414 1418 1422 1422 1423 1423 1429 1434 1440 1443 1443 1439 1437 1432 1432 1431 1421 1412 1411 1411 1411 1410 1409 1409 1408 1405 1402 1399 1398 1397 1397 1397 1396 1395
1390 1388 1386 1384 1380 1376 1372 1370 1368 1367 1372 1371 1376 1385 1392 1397 1400 1404 1406 1408 1410 1414 1416 1417 1419 1417 1425 1426 1432 1435 1430 1428 1425 1418 1423 1414 1402 1399 1400 1402 1402 1403 1404 1404 1404 1402 1399 1397 1394 1392 1391 1390 1389 1388
1385 1383 1380 1377 1371 1364 1357 1351 1353 1358 1359 1364 1367 1382 1390 1398 1404 1404 1404 1408 1408 1406 1409 1410 1415 1418 1421 1425 1424 1430 1427 1426 1420 1417 1420 1407 1391 1393 1395 1397 1398 1400 1400 1399 1398 1396 1394 1392 1389 1387 1385 1383 1382 1381
1380 1378 1376 1370 1361 1350 1338 1339 1344 1352 1354 1364 1377 1385 1388 1394 1395 1393 1398 1398 1397 1398 1402 1408 1415 1418 1422 1423 1422 1422 1423 1419 1415 1418 1407 1391 1391 1391 1393 1394 1396 1396 1395 1394 1393 1391 1388 1386 1383 1382 1379 1376 1375 1372
1376 1375 1372 1366 1359 1339 1338 1341 1347 1352 1358 1370 1378 1386 1386 1387 1383 1381 1383 1386 1391 1393 1399 1405 1411 1413 1415 1418 1417 1414 1413 1414 1410 1401 1390 1384 1387 1388 1389 1391 1392 1392 1391 1389 1387 1384 1381 1379 1377 1375 1371 1367 1365 1363
1372 1372 1370 1365 1362 1354 1350 1353 1356 1360 1364 1371 1377 1377 1378 1376 1378 1381 1384 1389 1392 1395 1398 1404 1407 1408 1410 1411 1412 1412 1412 1405 1394 1386 1381 1382 1386 1388 1388 1389 1388 1386 1385 1383 1381 1378 1375 1372 1370 1366 1363 1358 1356 1354
1369 1369 1367 1365 1363 1362 1359 1359 1363 1364 1367 1370 1373 1375 1374 1375 1380 1383 1385 1388 1392 1394 1398 1401 1403 1402 1403 1405 1407 1403 1397 1390 1382 1382 1383 1385 1385 1385 1384 1384 1384 1382 1380 1377 1375 1372 1369 1366 1363 1358 1353 1349 1347 1345
1366 1366 1366 1364 1362 1361 1363 1365 1365 1365 1368 1372 1372 1372 1371 1371 1376 1380 1382 1387 1391 1394 1394 1396 1397 1397 1399 1401 1400 1389 1383 1382 1381 1381 1383 1384 1383 1382 1382 1380 1378 1376 1374 1372 1369 1366 1363 1360 1356 1350 1345 1342 1341 1338
1362 1364 1363 1364 1362 1362 1364 1368 1369 1369 1370 1371 1371 1375 1375 1374 1376 1380 1382 1386 1390 1392 1393 1393 1395 1396 1392 1388 1384 1382 1381 1383 1382 1381 1381 1381 1380 1378 1377 1375 1373 1371 1369 1366 1364 1361 1357 1355 1351 1347 1342 1338 1336 1334
1360 1362 1363 1364 1364 1364 1367 1370 1370 1370 1372 1374 1375 1376 1377 1378 1379 1380 1383 1386 1389 1391 1393 1394 1392 1387 1384 1382 1382 1382 1383 1382 1381 1380 1379 1378 1376 1374 1372 1370 1368 1366 1364 1362 1359 1356 1353 1351 1348 1345 1341 1338 1333 1331
1358 1361 1363 1364 1366 1366 1368 1370 1371 1372 1372 1375 1376 1378 1378 1377 1378 1381 1383 1386 1388 1391 1391 1389 1382 1379 1379 1379 1380 1379 1379 1379 1379 1377 1376 1374 1372 1371 1369 1367 1364 1361 1359 1358 1355 1353 1350 1348 1345 1343 1341 1338 1335 1330
1356 1360 1363 1365 1368 1368 1369 1370 1371 1372 1373 1374 1376 1377 1377 1377 1378 1380 1382 1384 1387 1386 1382 1377 1375 1375 1376 1376 1376 1375 1374 1375 1374 1374 1371 1370 1369 1367 1364 1363 1361 1358 1356 1355 1353 1351 1349 1346 1343 1339 1336 1334 1332 1329
1352 1357 1361 1365 1367 1368 1369 1370 1373 1374 1375 1376 1377 1378 1376 1376 1376 1377 1380 1382 1379 1375 1373 1371 1370 1371 1371 1371 1370 1370 1369 1369 1368 1367 1365 1363 1362 1361 1360 1359 1357 1354 1352 1351 1350 1348 1346 1344 1340 1335 1331 1329 1328 1325
1350 1358 1361 1364 1366 1368 1372 1371 1373 1373 1374 1376 1377 1376 1374 1374 1375 1377 1376 1373 1368 1366 1366 1366 1365 1365 1365 1365 1364 1364 1363 1362 1361 1360 1359 1358 1358 1357 1356 1354 1352 1352 1351 1351 1348 1346 1343 1341 1336 1332 1327 1324 1324 1321
1352 1356 1359 1362 1365 1368 1371 1371 1373 1373 1374 1376 1375 1374 1372 1371 1374 1373 1368 1363 1360 1360 1360 1360 1360 1360 1360 1360 1359 1358 1357 1356 1355 1354 1354 1353 1353 1353 1352 1351 1349 1348 1348 1346 1344 1341 1338 1335 1332 1328 1324 1319 1317 1318
1352 1358 1359 1362 1364 1366 1368 1370 1371 1371 1371 1370 1373 1370 1368 1370 1369 1368 1364 1356 1355 1355 1355 1356 1356 1356 1356 1355 1355 1354 1352 1351 1351 1352 1352 1351 1351 1350 1350 1348 1347 1346 1344 1343 1341 1339 1336 1333 1329 1327 1324 1320 1317 1313
1351 1356 1357 1357 1361 1363 1362 1365 1367 1366 1365 1367 1366 1365 1366 1365 1366 1360 1353 1351 1351 1352 1352 1352 1353 1353 1353 1352 1351 1350 1351 1350 1349 1349 1349 1349 1349 1348 1347 1346 1345 1344 1341 1339 1336 1334 1331 1329 1326 1323 1321 1319 1316 1313
1351 1354 1355 1356 1357 1358 1359 1359 1359 1360 1361 1363 1361 1363 1364 1365 1359 1353 1351 1350 1350 1350 1349 1349 1349 1350 1350 1349 1348 1348 1347 1347 1347 1348 1347 1347 1346 1345 1343 1343 1341 1340 1337 1334 1332 1329 1327 1324 1321 1320 1319 1316 1314 1312
1348 1350 1351 1354 1355 1355 1357 1356 1357 1356 1355 1356 1357 1359 1360 1355 1350 1350 1350 1349 1349 1348 1348 1347 1347 1347 1347 1347 1346 1346 1346 1345 1345 1345 1344 1343 1342 1341 1340 1338 1337 1335 1333 1330 1328 1325 1323 1321 1317 1313 1313 1312 1310 1308
1347 1348 1350 1352 1353 1353 1353 1352 1351 1350 1350 1351 1350 1350 1349 1348 1348 1348 1348 1347 1347 1347 1347 1346 1345 1344 1344 1344 1344 1344 1343 1343 1342 1341 1341 1340 1339 1338 1336 1335 1332 1331 1328 1326 1324 1322 1319 1315 1311 1308 1306 1305 1304 1302
1345 1346 1347 1348 1350 1348 1345 1346 1345 1345 1346 1348 1348 1347 1347 1346 1346 1346 1346 1345 1345 1345 1344 1343 1342 1342 1342 1342 1341 1341 1341 1340 1339 1339 1338 1337 1335 1334 1332 1330 1328 1326 1324 1321 1318 1316 1314 1313 1307 1303 1301 1299 1298 1298
1342 1344 1344 1344 1343 1342 1342 1342 1342 1343 1343 1343 1344 1345 1345 1345 1344 1344 1344 1343 1343 1343 1342 1341 1341 1341 1341 1341 1340 1340 1339 1338 1337 1336 1335 1334 1333 1331 1329 1328 1325 1323 1320 1317 1315 1312 1311 1308 1305 1302 1300 1299 1298 1299
1341 1341 1341 1340 1338 1339 1339 1339 1339 1340 1340 1341 1341 1341 1342 1342 1343 1343 1342 1342 1342 1342 1342 1342 1341 1340 1340 1339 1338 1338 1337 1337 1336 1334 1333 1331 1330 1329 1327 1325 1323 1320 1317 1315 1312 1310 1309 1307 1303 1301 1300 1299 1297 1296
1339 1339 1339 1339 1338 1338 1339 1339 1339 1339 1339 1339 1339 1340 1340 1341 1341 1342 1341 1341 1341 1341 1341 1341 1340 1339 1339 1338 1337 1337 1336 1335 1334 1333 1331 1330 1328 1327 1325 1323 1320 1318 1315 1313 1311 1309 1307 1305 1303 1300 1299 1299 1297 1297